Total_Precipitation_Accumulation
1.79 1.85 1.80 1.77 1.77 1.74 1.63 1.56 1.60 1.64 1.63 1.57 1.40 1.35 1.33 1.29 1.30 1.41 1.46 1.48 1.49 1.46 1.41 1.41 1.46 1.52 1.62 1.53 1.57 1.65 1.80 1.99 2.04 1.68 1.47 1.43 1.47 1.47 1.46 1.40 1.25 1.14 1.09
1.62 1.68 1.60 1.53 1.51 1.52 1.47 1.39 1.37 1.43 1.43 1.39 1.31 1.20 1.14 1.17 1.27 1.29 1.26 1.28 1.34 1.33 1.30 1.30 1.30 1.38 1.48 1.50 1.49 1.48 1.58 1.74 1.86 1.80 1.59 1.46 1.43 1.44 1.45 1.45 1.20 0.99 0.96
1.57 1.60 1.58 1.49 1.41 1.37 1.34 1.25 1.16 1.22 1.27 1.25 1.24 1.22 1.18 1.13 1.17 1.16 1.14 1.19 1.24 1.26 1.27 1.24 1.21 1.31 1.36 1.36 1.37 1.36 1.40 1.41 1.55 1.56 1.40 1.33 1.29 1.29 1.44 1.43 1.33 1.28 0.94
1.42 1.48 1.49 1.45 1.38 1.30 1.26 1.26 1.21 1.21 1.17 1.09 1.09 1.13 1.13 1.08 1.07 1.06 1.06 1.16 1.25 1.20 1.13 1.13 1.15 1.14 1.15 1.22 1.22 1.30 1.38 1.47 1.51 1.50 1.36 1.24 1.26 1.29 1.52 1.59 1.51 1.35 1.14
1.28 1.29 1.28 1.27 1.26 1.19 1.16 1.20 1.18 1.20 1.15 1.13 1.10 1.08 1.06 1.02 0.97 0.99 0.99 0.98 1.12 1.14 1.10 1.06 1.01 1.01 1.00 1.03 1.01 1.12 1.29 1.45 1.50 1.53 1.44 1.32 1.31 1.47 1.51 1.44 1.42 1.30 1.15
1.26 1.19 1.14 1.14 1.11 1.07 1.04 1.01 1.02 1.06 1.13 1.16 1.15 1.11 1.02 0.91 0.98 0.97 0.89 0.92 1.03 1.09 1.11 1.07 0.98 0.91 0.84 0.84 0.82 0.88 1.06 1.26 1.45 1.58 1.51 1.42 1.35 1.46 1.56 1.50 1.54 1.54 1.41
1.27 1.14 1.06 1.07 1.05 1.01 0.95 0.99 0.98 1.00 1.08 1.15 1.17 1.17 1.07 0.97 1.01 0.94 0.89 0.88 0.98 1.11 1.15 1.12 0.93 0.79 0.89 0.87 0.86 0.83 0.86 0.95 1.21 1.51 1.64 1.50 1.45 1.55 1.70 1.67 1.68 1.69 1.58
1.30 1.17 1.04 1.02 1.02 1.00 1.00 1.05 1.08 1.05 1.08 1.16 1.21 1.16 1.08 0.99 0.99 0.93 0.89 0.84 0.87 0.97 1.03 1.05 1.13 1.11 0.97 0.92 0.86 0.89 0.95 1.00 1.05 1.13 1.37 1.40 1.29 1.36 1.55 1.61 1.65 1.63 1.54
1.22 1.10 0.96 0.90 0.93 0.92 0.93 0.99 1.03 1.06 1.08 1.14 1.15 1.16 1.13 1.04 0.95 0.90 0.93 0.88 0.83 0.83 0.83 0.89 0.99 1.04 0.98 0.89 0.88 0.98 1.06 1.08 0.93 1.01 1.09 1.23 1.31 1.25 1.26 1.38 1.62 1.79 1.77
1.01 0.92 0.84 0.86 0.86 0.84 0.87 0.93 1.02 1.06 1.06 1.07 1.10 1.14 1.13 1.08 0.90 0.77 0.83 0.82 0.83 0.82 0.87 0.91 0.89 0.84 0.88 0.83 0.86 1.04 1.13 1.10 1.16 1.32 1.45 1.53 1.49 1.40 1.27 1.36 1.65 1.87 1.89
0.80 0.81 0.82 0.86 0.89 0.84 0.90 0.96 1.00 1.01 1.07 1.08 1.07 1.06 1.04 0.93 0.77 0.68 0.69 0.69 0.76 0.81 0.90 0.95 0.88 0.77 0.76 0.75 0.81 0.96 1.11 1.19 1.47 1.77 1.80 1.69 1.59 1.51 1.42 1.39 1.54 1.73 1.90
0.80 0.83 0.85 0.87 0.74 0.70 0.90 0.94 0.92 1.00 1.06 1.03 1.00 0.96 0.90 0.83 0.68 0.58 0.57 0.59 0.66 0.76 0.94 0.90 0.81 0.77 0.68 0.68 0.76 0.94 1.07 1.30 1.65 1.88 1.76 1.53 1.40 1.32 1.28 1.30 1.39 1.49 1.67
0.98 0.97 0.90 0.88 0.88 0.89 0.92 0.89 0.89 0.91 0.87 0.76 0.74 0.77 0.76 0.76 0.71 0.59 0.53 0.54 0.60 0.66 0.82 0.86 0.80 0.77 0.74 0.86 0.96 1.08 1.21 1.43 1.70 1.71 1.54 1.40 1.32 1.26 1.20 1.25 1.29 1.34 1.33
1.10 1.01 0.94 0.97 1.04 1.02 0.93 0.78 0.74 0.72 0.70 0.68 0.68 0.70 0.70 0.68 0.60 0.51 0.49 0.54 0.59 0.61 0.72 0.89 0.97 0.98 0.99 1.10 1.22 1.32 1.41 1.49 1.51 1.45 1.35 1.31 1.24 1.24 1.21 1.22 1.27 1.28 1.35
1.16 1.06 0.96 0.87 0.88 0.90 0.75 0.60 0.58 0.56 0.56 0.64 0.69 0.69 0.69 0.62 0.50 0.50 0.47 0.50 0.57 0.64 0.72 0.92 1.11 1.18 1.24 1.30 1.32 1.38 1.43 1.40 1.36 1.32 1.31 1.27 1.22 1.22 1.24 1.25 1.33 1.28 1.28
1.08 0.99 0.85 0.72 0.67 0.61 0.56 0.56 0.53 0.47 0.48 0.53 0.61 0.58 0.50 0.51 0.48 0.45 0.48 0.55 0.62 0.74 0.81 1.03 1.22 1.27 1.30 1.32 1.32 1.37 1.39 1.32 1.25 1.25 1.29 1.27 1.26 1.25 1.27 1.33 1.41 1.37 1.34
1.02 0.91 0.73 0.60 0.57 0.53 0.53 0.62 0.66 0.56 0.49 0.50 0.53 0.52 0.49 0.47 0.45 0.44 0.49 0.58 0.64 0.72 0.80 1.01 1.22 1.38 1.40 1.30 1.25 1.26 1.33 1.34 1.32 1.31 1.31 1.33 1.29 1.25 1.28 1.35 1.38 1.32 1.28
0.89 0.77 0.66 0.58 0.52 0.50 0.48 0.54 0.69 0.76 0.73 0.68 0.62 0.56 0.53 0.50 0.50 0.51 0.54 0.58 0.69 0.74 0.86 1.02 1.16 1.23 1.28 1.28 1.21 1.20 1.21 1.27 1.32 1.30 1.29 1.34 1.34 1.30 1.29 1.32 1.33 1.23 1.19
0.77 0.71 0.62 0.55 0.50 0.48 0.47 0.52 0.62 0.69 0.77 0.81 0.75 0.66 0.63 0.59 0.59 0.61 0.60 0.60 0.70 0.78 0.88 0.98 1.05 1.08 1.07 1.08 1.05 1.04 1.08 1.13 1.14 1.14 1.15 1.21 1.26 1.29 1.28 1.25 1.23 1.15 1.16
0.69 0.68 0.60 0.49 0.44 0.45 0.47 0.53 0.62 0.70 0.79 0.87 0.84 0.75 0.70 0.71 0.73 0.73 0.67 0.66 0.68 0.75 0.82 0.89 0.94 0.92 0.93 0.94 0.91 0.88 0.90 0.91 0.91 0.93 0.96 1.00 1.05 1.10 1.11 1.07 1.05 1.07 1.13
0.55 0.60 0.61 0.52 0.46 0.48 0.54 0.62 0.72 0.80 0.82 0.89 0.86 0.78 0.81 0.81 0.86 0.87 0.83 0.80 0.79 0.77 0.80 0.80 0.85 0.88 0.87 0.89 0.87 0.84 0.82 0.81 0.80 0.82 0.87 0.93 0.97 0.97 0.93 0.91 0.91 0.91 0.99
0.51 0.54 0.53 0.55 0.55 0.57 0.65 0.73 0.80 0.83 0.81 0.82 0.76 0.69 0.75 0.75 0.82 0.84 0.86 0.90 0.89 0.84 0.81 0.80 0.83 0.88 0.93 0.94 0.87 0.83 0.81 0.78 0.75 0.76 0.83 0.87 0.89 0.85 0.82 0.84 0.86 0.90 0.90
0.45 0.52 0.50 0.51 0.54 0.57 0.63 0.70 0.75 0.76 0.74 0.73 0.69 0.67 0.68 0.72 0.76 0.78 0.84 0.88 0.90 0.88 0.84 0.80 0.82 0.84 0.85 0.89 0.87 0.78 0.74 0.73 0.72 0.73 0.81 0.85 0.83 0.78 0.76 0.81 0.85 0.88 0.87
0.40 0.50 0.50 0.47 0.50 0.52 0.56 0.62 0.62 0.65 0.62 0.63 0.64 0.62 0.64 0.69 0.72 0.76 0.80 0.82 0.85 0.87 0.85 0.83 0.82 0.80 0.77 0.77 0.74 0.64 0.59 0.60 0.60 0.63 0.74 0.80 0.78 0.74 0.75 0.81 0.79 0.76 0.76
0.38 0.43 0.43 0.42 0.43 0.45 0.50 0.51 0.49 0.52 0.55 0.57 0.59 0.60 0.61 0.64 0.67 0.67 0.68 0.71 0.76 0.81 0.80 0.78 0.78 0.75 0.68 0.65 0.63 0.55 0.55 0.57 0.57 0.58 0.65 0.73 0.72 0.75 0.78 0.79 0.78 0.77 0.79
0.36 0.38 0.40 0.41 0.42 0.45 0.46 0.46 0.44 0.45 0.48 0.51 0.53 0.52 0.52 0.54 0.57 0.60 0.61 0.62 0.66 0.72 0.75 0.71 0.65 0.62 0.59 0.55 0.57 0.60 0.58 0.52 0.52 0.56 0.59 0.66 0.71 0.75 0.79 0.81 0.77 0.79 0.83